TimeCST,TemperatureF,Dew PointF,Humidity,Sea Level PressureIn,VisibilityMPH,Wind Direction,Wind SpeedMPH,Gust SpeedMPH,PrecipitationIn,Events,Conditions,WindDirDegrees,DateUTC
12:09 AM,33.1,32.5,98,29.28,7.0,West,13.8,20.7,N/A,Snow,Light Snow,260,2013-02-11 06:09:00
12:30 AM,32.9,32.0,96,29.29,7.0,West,17.3,21.9,N/A,,Overcast,270,2013-02-11 06:30:00
12:49 AM,32.4,32.0,99,29.30,7.0,West,18.4,25.3,N/A,Snow,Light Snow,280,2013-02-11 06:49:00
1:09 AM,32.4,31.6,97,29.31,5.0,West,21.9,29.9,N/A,Snow,Light Snow,280,2013-02-11 07:09:00
1:30 AM,32.2,31.1,96,29.33,7.0,West,23.0,31.1,N/A,,Overcast,270,2013-02-11 07:30:00
1:49 AM,31.8,30.2,94,29.34,7.0,West,24.2,33.4,N/A,,Overcast,270,2013-02-11 07:49:00
2:10 AM,30.7,29.3,94,29.36,4.0,West,23.0,28.8,N/A,,Overcast,280,2013-02-11 08:10:00
2:29 AM,30.0,28.4,94,29.37,4.0,West,27.6,33.4,N/A,Snow,Light Snow,280,2013-02-11 08:29:00
2:50 AM,29.3,28.0,95,29.38,5.0,West,28.8,34.5,N/A,Snow,Light Snow,280,2013-02-11 08:50:00
3:10 AM,29.3,27.9,94,29.40,5.0,WNW,26.5,35.7,N/A,,Overcast,290,2013-02-11 09:10:00
3:30 AM,29.3,27.5,93,29.41,7.0,WNW,26.5,34.5,N/A,,Overcast,290,2013-02-11 09:30:00
3:49 AM,29.1,27.3,93,29.42,7.0,WNW,25.3,34.5,N/A,,Overcast,300,2013-02-11 09:49:00
4:09 AM,29.1,27.0,92,29.44,10.0,WNW,27.6,34.5,N/A,,Overcast,300,2013-02-11 10:09:00
4:29 AM,28.9,26.8,92,29.45,7.0,WNW,23.0,31.1,N/A,,Overcast,290,2013-02-11 10:29:00
4:50 AM,28.8,27.0,93,29.47,5.0,WNW,28.8,38.0,N/A,,Overcast,290,2013-02-11 10:50:00
5:09 AM,28.4,27.0,94,29.49,5.0,WNW,27.6,40.3,N/A,,Overcast,290,2013-02-11 11:09:00
5:30 AM,28.4,26.6,93,29.50,7.0,WNW,27.6,33.4,N/A,,Overcast,300,2013-02-11 11:30:00
5:50 AM,28.2,26.2,92,29.52,7.0,WNW,27.6,34.5,N/A,,Overcast,300,2013-02-11 11:50:00
6:10 AM,28.0,25.7,91,29.53,7.0,WNW,26.5,35.7,N/A,Snow,Light Snow,300,2013-02-11 12:10:00
6:29 AM,27.7,25.2,90,29.55,10.0,WNW,28.8,34.5,N/A,,Overcast,300,2013-02-11 12:29:00
6:50 AM,27.3,24.6,90,29.57,10.0,WNW,28.8,36.8,N/A,,Overcast,300,2013-02-11 12:50:00
7:09 AM,27.1,24.1,88,29.60,10.0,WNW,28.8,36.8,N/A,,Overcast,300,2013-02-11 13:09:00
7:30 AM,26.6,23.4,88,29.62,10.0,NW,29.9,39.1,N/A,,Overcast,310,2013-02-11 13:30:00
7:50 AM,26.4,23.4,88,29.63,10.0,WNW,25.3,31.1,N/A,,Overcast,300,2013-02-11 13:50:00
8:09 AM,26.1,22.6,87,29.64,10.0,WNW,23.0,38.0,N/A,,Overcast,300,2013-02-11 14:09:00
8:30 AM,25.7,22.5,88,29.65,10.0,WNW,28.8,36.8,N/A,,Overcast,300,2013-02-11 14:30:00
8:49 AM,25.5,21.9,86,29.67,10.0,WNW,27.6,34.5,N/A,Snow,Light Snow,290,2013-02-11 14:49:00
9:10 AM,25.3,21.0,84,29.68,10.0,WNW,27.6,40.3,N/A,,Overcast,300,2013-02-11 15:10:00
9:30 AM,25.3,21.2,84,29.70,10.0,WNW,27.6,36.8,N/A,,Overcast,290,2013-02-11 15:30:00
9:50 AM,24.8,20.7,84,29.72,10.0,WNW,33.4,-,N/A,,Overcast,290,2013-02-11 15:50:00
10:10 AM,25.0,20.5,83,29.73,7.0,WNW,28.8,39.1,N/A,,Overcast,300,2013-02-11 16:10:00
10:30 AM,24.8,20.3,83,29.74,10.0,WNW,32.2,42.6,N/A,,Overcast,300,2013-02-11 16:30:00
10:50 AM,24.8,20.3,83,29.76,10.0,WNW,28.8,38.0,N/A,,Overcast,300,2013-02-11 16:50:00
11:09 AM,24.8,20.3,83,29.77,10.0,WNW,28.8,39.1,N/A,,Overcast,300,2013-02-11 17:09:00
11:30 AM,24.6,20.1,83,29.78,10.0,WNW,27.6,34.5,N/A,,Overcast,300,2013-02-11 17:30:00
11:50 AM,24.8,20.3,83,29.79,10.0,WNW,28.8,39.1,N/A,,Overcast,300,2013-02-11 17:50:00
12:10 PM,24.8,20.3,83,29.80,10.0,WNW,25.3,38.0,N/A,,Overcast,290,2013-02-11 18:10:00
12:29 PM,24.6,20.3,84,29.81,10.0,WNW,29.9,35.7,N/A,,Overcast,290,2013-02-11 18:29:00
12:50 PM,24.6,19.9,82,29.82,10.0,WNW,31.1,38.0,N/A,,Overcast,290,2013-02-11 18:50:00
1:10 PM,24.3,19.6,82,29.83,10.0,WNW,29.9,35.7,N/A,,Overcast,290,2013-02-11 19:10:00
1:29 PM,23.9,19.4,83,29.84,10.0,WNW,26.5,35.7,N/A,,Overcast,290,2013-02-11 19:29:00
1:50 PM,23.5,18.7,82,29.85,10.0,WNW,28.8,38.0,N/A,,Overcast,300,2013-02-11 19:50:00
2:09 PM,23.9,18.9,81,29.85,10.0,NW,24.2,35.7,N/A,,Overcast,310,2013-02-11 20:09:00
2:30 PM,23.9,19.8,84,29.86,7.0,WNW,17.3,29.9,N/A,,Overcast,300,2013-02-11 20:30:00
2:49 PM,23.7,19.2,83,29.87,10.0,WNW,26.5,32.2,N/A,,Overcast,300,2013-02-11 20:49:00
3:10 PM,23.5,18.9,82,29.88,10.0,WNW,27.6,33.4,N/A,,Overcast,300,2013-02-11 21:10:00
3:30 PM,23.4,18.7,82,29.89,10.0,WNW,20.7,32.2,N/A,,Overcast,300,2013-02-11 21:30:00
3:49 PM,23.4,19.0,84,29.90,5.0,WNW,23.0,32.2,N/A,,Overcast,300,2013-02-11 21:49:00
4:49 PM,23.0,18.9,84,29.92,10.0,WNW,23.0,29.9,N/A,,Overcast,300,2013-02-11 22:49:00
5:10 PM,22.5,18.3,84,29.93,10.0,WNW,25.3,28.8,N/A,,Overcast,290,2013-02-11 23:10:00
5:30 PM,21.9,17.6,83,29.94,10.0,NW,23.0,29.9,N/A,,Overcast,310,2013-02-11 23:30:00
5:49 PM,21.2,17.2,85,29.94,3.0,WNW,29.9,33.4,N/A,,Overcast,300,2013-02-11 23:49:00
6:10 PM,21.0,16.3,82,29.95,10.0,WNW,20.7,29.9,N/A,,Overcast,290,2013-02-12 00:10:00
6:30 PM,20.7,17.4,87,29.96,3.0,NW,18.4,-,N/A,,Overcast,310,2013-02-12 00:30:00
6:49 PM,20.3,15.8,83,29.97,10.0,WNW,21.9,29.9,N/A,,Overcast,290,2013-02-12 00:49:00
7:10 PM,20.3,15.8,83,29.98,10.0,WNW,24.2,28.8,N/A,,Overcast,290,2013-02-12 01:10:00
7:29 PM,20.1,15.4,82,29.98,10.0,WNW,19.6,31.1,N/A,,Overcast,300,2013-02-12 01:29:00
7:50 PM,20.1,16.2,85,29.98,7.0,WNW,17.3,-,N/A,Snow,Light Snow,300,2013-02-12 01:50:00
8:10 PM,19.9,15.4,83,29.99,10.0,NW,18.4,27.6,N/A,,Overcast,310,2013-02-12 02:10:00
8:30 PM,19.9,15.6,83,29.99,10.0,WNW,19.6,25.3,N/A,,Overcast,300,2013-02-12 02:30:00
8:49 PM,19.4,14.7,82,30.00,7.0,WNW,23.0,-,N/A,Snow,Light Snow,290,2013-02-12 02:49:00
9:10 PM,19.2,14.5,82,30.00,7.0,WNW,19.6,-,N/A,Snow,Light Snow,290,2013-02-12 03:10:00
9:30 PM,19.2,15.1,84,30.01,4.0,WNW,20.7,25.3,N/A,Snow,Light Snow,300,2013-02-12 03:30:00
9:50 PM,19.2,14.9,83,30.01,10.0,NW,17.3,21.9,N/A,Snow,Light Snow,310,2013-02-12 03:50:00
10:10 PM,19.4,14.7,82,30.01,10.0,NW,19.6,27.6,N/A,Snow,Light Snow,310,2013-02-12 04:10:00
10:30 PM,19.4,14.9,83,30.01,10.0,WNW,18.4,21.9,N/A,Snow,Light Snow,300,2013-02-12 04:30:00
10:50 PM,19.4,14.9,83,30.01,10.0,WNW,20.7,24.2,N/A,,Overcast,300,2013-02-12 04:50:00
11:09 PM,19.4,14.9,83,30.02,10.0,WNW,17.3,24.2,N/A,,Overcast,300,2013-02-12 05:09:00
11:30 PM,19.4,14.9,83,30.02,10.0,NW,17.3,23.0,N/A,,Overcast,310,2013-02-12 05:30:00
11:49 PM,19.6,15.1,83,30.01,7.0,NW,15.0,-,N/A,Snow,Light Snow,310,2013-02-12 05:49:00